Rexburg, ID

9:09 AM MST on November 20, 2017 (GMT -0700)
Rexburg-Madison County

Weather History for KRXE - April, 2014

Change the Weather History Date:

Sunday, April 27, 2014

  Actual Average Record
Temperature  
Mean Temperature 42 °F 47 °F  
Max Temperature 51 °F 60 °F 78 °F (2000)
Min Temperature 32 °F 34 °F 22 °F (2008)
Degree Days  
Heating Degree Days 23 18  
Month to date heating degree days 556 584  
Since 1 July heating degree days 7232 7513  
Cooling Degree Days 0 0  
Month to date cooling degree days 0 0  
Year to date cooling degree days 0 0  
Moisture  
Dew Point 31 °F    
Average Humidity 68    
Maximum Humidity 96    
Minimum Humidity 39    
Precipitation  
Precipitation 0.07 in 0.06 in 0.35 in (1983)
Month to date precipitation 1.41 1.32  
Year to date precipitation 4.45 3.95  
Sea Level Pressure  
Sea Level Pressure 29.74 in    
Wind  
Wind Speed 11 mph (SSW)    
Max Wind Speed 29 mph    
Max Gust Speed 37 mph    
Visibility 9 miles    
Events Rain , Snow    
T = Trace of Precipitation, MM = Missing Value Source: NWS Daily Summary

Daily Weather History Graph

Daily Weather History Graph

Search for Another Location

Airport or City:

Trip Planner

Search our weather history database for the weather conditions in past years. The results will help you decide how hot, cold, wet, or windy it might be!

Date:

Astronomy

Apr. 27, 2014 Rise Set
Actual Time 6:24 AM MDT 8:25 PM MDT
Civil Twilight 5:53 AM MDT 8:56 PM MDT
Nautical Twilight 5:15 AM MDT 9:35 PM MDT
Astronomical Twilight 4:34 AM MDT 10:17 PM MDT
Moon 5:31 AM MDT (4/27) 7:00 PM MDT (4/27)
Length of Visible Light 15h 02m
Length of Day
14h 00m
Waning Crescent, 3% of the Moon is Illuminated
Apr 27
Waning Crescent
Apr 29
New
May 6
First Quarter
May 14
Full
May 21
Last Quarter

Hourly Weather History & Observations

Time (MDT) Temp. Windchill Dew Point Humidity Pressure Visibility Wind Dir Wind Speed Gust Speed Precip Events Conditions
12:53 AM 39.0 °F 32.8 °F 34.0 °F 82% 29.65 in 10.0 mi West 9.2 mph - 0.00 in Rain Light Rain
1:48 AM 37.4 °F 32.8 °F 35.6 °F 93% 29.66 in 10.0 mi South 5.8 mph - 0.02 in Rain Light Rain
1:53 AM 37.9 °F 32.1 °F 36.0 °F 93% 29.67 in 10.0 mi South 8.1 mph - 0.02 in Rain Light Rain
2:45 AM 34.0 °F 25.5 °F 33.1 °F 96% 29.68 in 10.0 mi SSW 11.5 mph - 0.02 in Rain Light Rain
2:53 AM 33.1 °F 25.5 °F 32.0 °F 96% 29.71 in 4.0 mi SSW 9.2 mph - 0.03 in Snow Light Snow
3:16 AM 32.0 °F 24.8 °F 30.9 °F 96% 29.68 in 2.5 mi South 8.1 mph - 0.00 in Snow Light Snow
3:34 AM 32.0 °F 24.2 °F 32.0 °F 100% 29.68 in 3.0 mi South 9.2 mph - 0.00 in Snow Light Snow
3:53 AM 33.1 °F 25.5 °F 32.0 °F 96% 29.71 in 5.0 mi South 9.2 mph - 0.00 in Snow Light Snow
4:15 AM 33.1 °F 26.1 °F 30.9 °F 92% 29.69 in 8.0 mi South 8.1 mph - 0.00 in Snow Light Snow
4:53 AM 33.1 °F 26.1 °F 30.0 °F 89% 29.72 in 10.0 mi South 8.1 mph - 0.00 in   Overcast
5:07 AM 34.0 °F 28.0 °F 30.0 °F 85% 29.71 in 10.0 mi SSW 6.9 mph - N/A   Overcast
6:53 AM 33.1 °F 24.9 °F 27.0 °F 78% 29.76 in 10.0 mi SSW 10.4 mph - N/A   Overcast
7:53 AM 33.1 °F 25.5 °F 28.9 °F 85% 29.78 in 10.0 mi SSW 9.2 mph - N/A   Overcast
8:53 AM 35.1 °F 26.4 °F 30.0 °F 82% 29.79 in 10.0 mi SSW 12.7 mph - N/A   Mostly Cloudy
9:09 AM 35.1 °F 26.9 °F 30.0 °F 82% 29.78 in 10.0 mi South 11.5 mph - N/A   Overcast
10:02 AM 37.0 °F 29.3 °F 30.9 °F 79% 29.78 in 10.0 mi SSW 11.5 mph - N/A   Overcast
10:32 AM 39.0 °F 31.8 °F 30.9 °F 73% 29.78 in 10.0 mi SSW 11.5 mph - N/A   Scattered Clouds
10:53 AM 41.0 °F 34.3 °F 32.0 °F 70% 29.78 in 10.0 mi South 11.5 mph - N/A   Mostly Cloudy
11:53 AM 45.0 °F 38.2 °F 28.9 °F 53% 29.77 in 10.0 mi SSW 15.0 mph - N/A   Partly Cloudy
12:53 PM 46.9 °F - 30.0 °F 52% 29.76 in 10.0 mi SW 17.3 mph 21.9 mph N/A   Mostly Cloudy
2:53 PM 48.0 °F - 26.1 °F 42% 29.74 in 10.0 mi SW 11.5 mph - N/A   Overcast
3:53 PM 50.0 °F - 26.1 °F 39% 29.72 in 10.0 mi SW 18.4 mph 23.0 mph N/A   Overcast
4:53 PM 45.0 °F 37.4 °F 30.9 °F 58% 29.75 in 10.0 mi SSW 18.4 mph 27.6 mph 0.00 in   Overcast
5:53 PM 42.1 °F 35.2 °F 32.0 °F 67% 29.77 in 10.0 mi SW 12.7 mph 29.9 mph 0.00 in Rain Light Rain
6:53 PM 44.1 °F 38.1 °F 32.0 °F 63% 29.76 in 10.0 mi South 11.5 mph 20.7 mph 0.00 in   Clear
7:53 PM 43.0 °F 38.8 °F 30.0 °F 60% 29.79 in 10.0 mi West 6.9 mph - 0.01 in   Scattered Clouds
8:53 PM 39.9 °F 35.8 °F 30.9 °F 70% 29.81 in 10.0 mi South 5.8 mph - N/A   Partly Cloudy
9:53 PM 41.0 °F 34.3 °F 32.0 °F 70% 29.82 in 10.0 mi SSW 11.5 mph - 0.00 in   Overcast
11:53 PM 36.0 °F 33.3 °F 25.0 °F 64% 29.86 in 10.0 mi North 3.5 mph - N/A   Scattered Clouds